GFSSW_925_spd_276.txt.gz
Wind_Speed
17 17 17 17 17 16 15 14 14 14 14 15 15 17 18 19 14 6 4 4 2 7 8 5 13 18 19 8 8 2 3 1 5 6 6 18 13 11 12 19 14 2 18 26 32
18 17 17 18 17 16 15 15 15 16 15 15 14 16 17 17 11 8 9 5 6 9 8 12 28 12 3 3 2 2 2 4 6 10 9 16 21 14 12 19 13 19 21 33 33
19 18 17 18 17 15 15 16 18 18 16 14 14 14 15 13 3 6 8 9 10 10 8 5 31 14 4 1 1 0 4 4 10 10 14 14 20 16 21 16 23 22 26 27 31
20 19 18 18 17 16 16 18 20 19 16 13 12 12 12 3 2 5 9 9 9 7 5 3 5 12 7 6 3 4 11 4 9 7 6 10 14 18 18 13 21 20 23 25 21
22 21 19 18 18 16 17 19 20 16 13 10 8 8 2 2 7 6 11 10 10 6 7 3 4 6 4 10 8 6 2 9 7 13 12 13 9 11 14 20 18 18 23 19 20
25 23 20 19 19 17 17 19 18 13 11 7 5 6 2 2 4 9 10 11 9 10 10 6 7 6 7 7 8 6 8 7 5 8 8 10 6 10 17 19 17 17 18 18 17
28 25 21 20 20 17 17 18 18 12 9 6 4 2 1 8 5 12 12 12 11 17 5 14 13 7 4 6 2 8 4 4 1 2 5 7 7 12 19 17 15 10 13 12 15
29 27 24 22 21 18 18 18 16 9 7 4 3 0 5 2 9 12 11 13 15 18 21 25 20 1 2 7 5 5 5 2 3 3 1 5 4 13 19 19 15 11 12 10 7
30 29 26 24 23 20 19 19 13 6 5 4 1 1 7 2 10 14 16 11 12 22 28 23 5 5 2 5 3 3 1 4 2 7 3 2 6 12 15 18 17 14 13 11 8
32 31 28 26 24 22 20 18 7 4 1 1 3 3 4 4 5 9 16 17 3 6 7 5 4 2 2 3 5 6 4 4 6 8 7 4 8 18 16 18 19 17 15 11 10
33 32 30 27 23 22 21 6 5 4 2 7 5 5 5 11 9 5 6 1 4 5 3 5 5 6 13 11 12 9 6 7 8 8 6 12 7 19 18 15 17 16 15 13 12
34 34 31 27 23 19 13 1 6 2 7 8 14 6 17 7 3 4 3 2 1 5 5 6 5 13 8 1 6 10 3 5 2 5 7 7 11 17 19 21 21 19 16 15 13
34 34 32 27 21 7 10 12 19 21 2 8 7 5 6 6 5 6 8 4 5 3 5 5 10 8 5 6 8 5 5 4 5 3 4 3 3 16 17 20 17 17 13 10 15
35 35 32 29 4 13 9 7 28 6 4 7 3 5 3 4 3 7 13 5 1 8 4 5 7 5 4 4 5 5 4 3 5 4 3 4 4 8 18 19 18 11 7 1 8
35 37 30 22 14 5 5 26 27 4 2 4 5 7 7 8 4 3 2 4 5 6 5 6 5 6 8 1 2 4 2 4 3 3 4 1 2 7 15 11 5 14 13 12 12
39 34 28 10 11 15 17 25 6 5 5 3 6 7 5 1 1 5 2 3 1 3 2 7 1 3 2 2 3 2 4 7 6 4 3 4 6 5 9 8 10 14 18 16 13
39 30 24 13 5 3 22 5 5 3 5 5 6 5 5 7 5 5 5 3 3 3 4 4 2 1 4 4 8 9 7 4 4 4 6 3 4 5 7 16 20 18 13 15 12
38 29 14 18 13 7 8 5 4 5 6 2 4 5 8 5 5 6 4 2 5 3 4 3 3 1 1 3 3 3 6 5 2 1 5 5 5 4 4 11 7 9 12 13 12
39 16 10 13 7 6 5 3 8 6 2 5 7 5 3 4 5 3 4 4 1 1 6 4 1 3 4 2 4 3 3 5 4 1 4 3 4 15 13 15 14 15 12 7 6
28 10 8 5 11 10 5 6 5 4 7 7 1 6 7 7 5 5 3 2 3 3 3 1 4 3 2 4 4 5 2 4 4 2 4 3 4 7 5 10 16 17 15 9 12
8 4 7 12 12 5 3 6 6 6 7 5 9 10 7 9 9 4 3 5 3 3 9 3 4 5 4 3 5 4 4 5 5 3 4 3 3 2 2 1 7 9 11 13 14
7 3 9 19 3 1 2 4 8 17 14 7 7 10 5 8 6 6 5 3 3 2 4 2 5 1 5 8 2 4 3 5 5 3 4 6 1 6 9 11 13 14 14 12 10
3 3 6 11 2 3 5 4 3 5 7 4 5 1 5 5 7 7 5 6 6 6 2 3 3 3 8 8 7 6 5 4 4 3 1 6 3 3 9 11 9 11 8 7 9
2 4 4 4 1 5 2 5 6 7 12 8 5 7 7 7 5 5 5 5 6 5 6 7 4 6 5 4 3 4 6 4 5 4 4 3 7 2 6 7 7 7 7 7 7
1 3 2 3 5 2 1 2 9 5 7 4 7 6 8 6 6 6 6 6 6 2 4 5 3 3 4 2 4 4 7 7 1 4 5 6 7 2 4 6 4 7 11 13 13
2 3 4 3 5 4 5 4 6 10 3 4 10 13 12 5 7 9 8 4 4 4 5 5 2 4 7 7 7 3 7 8 5 13 16 12 7 1 5 7 11 9 9 9 8
7 6 3 5 6 4 4 8 9 3 16 12 15 15 18 6 10 10 8 6 9 7 3 4 3 3 4 6 6 5 6 9 10 9 8 4 4 2 5 6 6 7 7 7 9

GFSSW_925_spd_282.txt.gz
Wind_Speed
18 17 16 15 15 13 12 13 15 17 17 16 14 14 15 16 12 3 1 5 3 8 11 11 6 8 5 4 2 2 4 3 5 7 5 8 5 7 6 8 2 3 5 13 24
21 20 18 16 15 14 13 13 15 17 17 15 13 12 14 15 6 2 9 13 11 11 9 8 4 5 3 2 2 4 3 2 4 6 8 10 9 6 6 6 4 10 16 21 22
22 21 19 16 15 14 13 12 15 17 15 13 11 10 11 11 1 2 17 19 21 13 5 5 5 1 4 1 4 3 2 5 2 7 13 11 6 2 13 2 5 18 17 17 17
23 23 20 18 16 15 13 12 14 15 13 12 9 8 10 3 3 7 24 16 14 15 7 2 0 3 3 3 3 3 4 3 1 9 10 12 8 5 4 2 14 19 19 17 13
25 24 22 19 17 15 12 12 12 13 12 10 8 7 3 1 2 15 22 17 16 16 6 3 4 2 3 4 1 6 4 5 8 9 12 11 6 6 1 13 15 17 17 14 11
26 25 24 22 19 16 13 12 11 12 10 8 6 5 2 3 2 21 23 22 16 14 6 3 3 2 3 3 4 6 6 8 7 9 7 8 5 5 7 14 16 16 14 11 13
28 27 26 24 21 17 14 12 11 10 7 6 4 2 1 3 2 18 19 18 14 16 5 14 6 1 5 1 7 4 2 3 4 4 3 9 2 3 14 16 17 14 12 11 13
29 28 28 26 23 20 16 13 11 6 2 3 2 1 4 5 4 17 15 6 10 14 15 7 11 3 2 3 2 4 4 2 2 4 5 4 4 6 15 17 15 14 11 10 11
31 30 30 29 26 23 17 13 2 3 2 1 2 2 3 5 2 6 11 5 7 9 10 7 4 3 3 5 3 3 2 2 3 5 5 2 1 7 11 14 13 12 12 12 11
32 32 31 30 27 25 14 5 5 4 4 3 1 3 3 2 3 4 5 8 0 5 2 4 4 3 3 3 5 4 2 2 5 6 4 5 3 11 11 11 13 12 11 10 8
33 33 32 29 28 21 7 2 4 4 1 4 3 2 4 5 5 5 3 6 2 5 3 3 4 4 7 6 5 4 3 3 4 7 4 6 5 12 13 9 10 9 9 9 11
34 34 32 27 25 10 7 6 8 2 5 3 5 6 9 2 3 2 5 3 3 2 2 5 3 3 6 4 6 4 3 5 2 5 4 5 6 13 15 15 13 13 12 10 5
35 36 31 26 14 6 5 6 1 3 3 6 5 4 4 8 5 6 6 3 3 1 3 4 4 0 4 4 5 2 6 4 3 5 3 5 2 9 11 6 7 10 7 6 9
35 36 30 25 2 10 1 6 16 9 5 6 4 6 4 4 2 4 5 5 2 4 5 4 4 2 5 2 3 3 2 5 8 4 3 2 4 3 10 15 14 9 9 7 7
37 35 30 20 10 2 1 14 5 3 2 3 3 1 2 8 3 2 3 4 5 3 4 5 5 3 4 4 5 3 4 4 4 5 4 4 3 5 3 11 15 14 12 6 6
38 35 29 7 5 6 6 7 3 6 5 1 4 5 5 2 2 3 3 6 2 4 2 3 4 1 1 3 4 5 6 8 5 3 2 3 4 3 3 5 7 6 8 8 8
38 34 16 6 2 0 9 3 5 4 4 2 3 4 3 4 1 2 3 3 5 4 2 4 4 4 1 3 4 7 6 3 3 3 5 4 4 1 9 9 12 11 11 10 7
39 17 7 4 4 6 1 5 4 3 5 4 3 3 7 5 3 2 4 2 1 4 4 4 3 2 4 3 5 3 6 6 5 4 3 4 4 6 5 8 9 10 11 10 8
33 9 4 6 9 2 5 3 7 5 4 6 3 3 2 2 5 3 6 6 6 7 5 4 3 3 4 2 3 3 2 4 7 3 3 2 2 3 10 10 9 10 10 6 3
15 7 9 7 10 3 5 5 3 4 4 4 1 1 5 4 5 5 6 3 5 2 2 6 4 2 2 2 6 3 5 3 3 4 2 3 3 4 8 8 8 8 6 5 7
5 4 10 10 4 5 4 5 5 6 3 1 1 4 3 3 6 2 7 1 1 3 5 4 3 3 4 6 1 4 3 7 6 3 5 3 2 5 2 3 7 7 7 7 9
4 3 6 3 4 1 3 5 4 5 1 5 3 7 5 4 3 5 6 2 4 5 4 1 5 4 2 2 2 2 3 4 5 3 1 3 2 3 4 5 8 10 9 9 11
2 2 3 1 3 3 4 4 5 5 7 4 6 7 3 5 3 3 3 2 1 2 7 6 3 4 6 6 4 5 3 4 4 3 2 5 4 2 5 7 8 11 10 10 11
2 3 4 4 0 2 3 5 4 4 7 6 4 5 4 2 2 6 4 5 3 4 10 9 4 5 6 5 3 2 4 3 4 3 6 4 8 4 4 7 6 8 8 8 8
4 1 2 3 3 3 1 2 4 4 3 5 4 8 7 4 3 2 3 4 4 3 5 5 4 4 4 3 2 2 2 5 2 4 2 7 5 6 5 6 4 5 8 11 12
2 3 4 2 3 2 3 3 3 6 2 5 6 9 7 9 9 13 8 3 4 6 4 4 2 3 3 5 4 3 7 5 5 5 7 14 6 4 5 5 5 6 6 6 6
4 1 3 4 5 2 3 5 6 5 4 5 4 3 4 1 7 6 4 5 6 5 3 4 6 3 2 4 4 3 5 2 3 4 8 10 5 5 4 5 4 4 5 5 6

GFSSW_925_spd_285.txt.gz
Wind_Speed
18 17 15 13 12 12 11 11 11 14 15 14 12 11 11 11 7 2 4 3 9 19 14 11 6 10 4 2 1 1 2 4 4 8 7 11 7 4 6 12 6 3 13 17 21
20 19 16 14 13 12 11 10 11 14 14 13 12 10 10 10 1 4 7 8 13 17 13 9 7 8 3 2 0 1 3 2 3 7 11 12 11 7 8 11 9 15 19 23 20
21 20 18 16 13 12 10 9 10 13 13 12 11 9 8 5 2 3 12 13 15 16 6 5 9 3 2 0 3 1 2 3 3 9 17 13 12 4 15 8 9 19 19 20 19
23 22 20 18 15 13 11 9 9 11 12 10 10 8 7 0 3 3 15 15 14 9 7 5 2 2 2 3 1 3 2 1 5 11 14 14 12 10 4 2 14 19 21 19 16
24 23 22 20 17 15 11 9 9 10 10 8 8 7 1 1 0 5 18 12 13 9 2 2 1 1 3 3 1 4 5 6 9 13 13 12 8 11 6 9 18 19 18 15 14
25 24 23 22 20 16 14 10 9 9 9 6 5 6 1 3 4 9 19 14 8 10 5 4 1 2 5 3 3 4 5 7 9 13 11 10 8 6 6 15 19 17 15 13 13
27 26 25 24 22 18 16 11 9 8 6 3 3 2 1 2 2 15 18 12 12 8 2 4 2 3 2 3 3 4 8 8 8 8 5 15 7 3 15 17 17 16 13 12 13
28 28 27 25 23 20 16 11 8 4 2 0 1 1 3 3 6 15 15 8 12 10 7 7 5 1 3 6 4 4 1 3 5 7 7 5 3 10 16 18 16 15 12 12 12
29 29 27 25 23 21 13 6 4 5 3 2 2 0 4 7 6 12 14 4 8 7 7 6 1 3 3 3 2 1 1 4 6 5 8 6 5 14 18 16 15 14 13 12 11
30 30 27 24 23 19 6 6 5 4 3 2 1 2 4 3 4 10 14 8 3 4 6 3 2 2 3 5 3 4 3 4 5 9 9 8 5 15 17 17 16 15 14 13 13
30 32 28 23 21 11 4 1 1 2 1 1 0 0 2 1 3 6 6 7 1 3 1 2 4 6 9 10 6 3 2 2 2 7 9 9 7 15 17 15 14 14 14 13 14
30 32 28 22 14 6 4 3 6 2 1 3 5 6 6 3 3 4 9 5 3 3 2 3 6 3 4 7 11 10 7 7 1 6 8 7 6 12 18 19 17 16 15 15 14
32 32 28 22 7 4 4 8 1 1 0 2 4 4 2 7 4 7 9 4 4 4 4 4 1 3 3 3 8 4 8 5 3 8 3 6 4 10 12 12 13 14 14 14 15
33 32 28 20 1 5 1 1 12 11 2 2 4 4 5 4 2 2 6 3 2 5 4 3 2 3 6 4 3 5 1 6 11 10 3 3 1 3 6 15 16 13 12 14 14
37 33 28 13 5 2 3 9 9 2 2 2 3 1 2 7 3 2 1 3 5 5 3 2 1 2 4 2 4 4 5 5 4 4 3 3 4 3 2 8 13 15 15 14 11
39 34 22 2 4 3 4 1 1 1 5 1 2 4 6 1 2 2 2 5 2 3 1 1 1 1 2 4 4 10 6 5 3 1 5 2 3 3 5 7 7 9 14 13 9
38 24 7 6 0 3 4 2 2 4 3 1 2 3 8 7 6 3 5 7 6 4 4 0 2 0 1 4 4 2 5 2 4 6 6 2 4 4 9 8 10 14 13 16 12
34 10 4 1 1 3 1 2 4 1 4 3 2 1 9 7 5 4 6 7 2 3 2 7 6 1 1 0 4 2 2 5 6 6 2 3 3 3 7 6 7 6 12 15 13
22 5 4 9 4 0 2 6 2 3 3 7 3 3 5 3 2 3 6 6 6 9 5 5 2 3 6 2 3 5 3 3 5 2 3 2 3 5 6 9 7 8 12 12 10
10 2 8 10 9 2 2 5 3 4 2 1 3 3 5 7 8 7 7 3 6 6 2 5 5 2 2 0 13 1 8 3 1 6 6 3 2 1 7 7 4 9 8 10 10
4 2 6 7 4 3 5 3 4 6 3 1 0 3 2 1 5 7 8 2 3 4 3 5 2 4 2 5 3 4 3 5 4 2 3 4 3 2 1 3 4 7 8 9 11
4 2 9 6 2 1 2 2 1 3 3 3 2 6 4 2 3 5 10 1 1 7 7 2 4 4 5 3 2 2 3 2 4 5 0 3 3 2 3 6 11 13 12 14 15
2 2 5 2 2 2 1 2 3 3 7 4 6 6 4 5 3 2 4 2 4 4 6 8 2 6 4 3 2 2 3 3 4 2 6 4 4 5 8 10 11 14 13 13 13
2 1 2 3 1 1 2 2 3 3 6 6 5 5 4 4 2 5 4 2 3 4 7 4 4 2 7 3 3 5 3 3 3 4 6 4 11 12 11 13 11 11 10 10 10
3 2 2 2 2 3 1 3 4 5 4 3 5 15 7 5 4 6 3 5 4 1 3 2 4 4 7 5 5 6 4 2 4 2 5 7 16 16 13 13 10 8 8 8 9
2 2 1 1 2 1 1 1 4 5 4 4 9 2 14 8 7 13 10 3 3 3 3 3 4 4 4 6 4 4 5 3 3 4 4 12 12 9 10 9 8 6 6 7 7
3 0 2 2 2 1 3 5 5 7 7 9 9 5 8 4 6 11 7 10 6 4 3 3 6 2 4 4 2 4 4 3 2 2 7 8 7 15 12 9 7 5 5 6 7

GFSSW_925_spd_288.txt.gz
Wind_Speed
17 17 15 13 10 10 8 8 9 11 12 12 12 10 9 8 6 3 5 5 11 20 13 10 6 6 2 1 1 1 4 9 10 10 10 11 12 7 8 13 7 3 17 22 23
19 18 17 15 12 11 9 8 9 10 11 11 11 10 8 10 3 7 3 11 21 20 12 8 6 6 1 1 0 3 8 10 6 8 12 10 10 12 12 12 13 15 21 23 22
20 19 18 17 14 12 10 9 8 10 10 10 10 9 7 7 7 9 11 14 19 15 8 2 8 3 1 2 1 1 7 4 4 8 13 13 11 9 13 9 13 21 22 21 20
21 21 20 19 16 14 10 9 9 9 9 9 9 8 7 3 2 7 14 16 16 8 8 5 6 4 2 3 3 5 4 4 8 12 12 11 10 12 4 12 14 19 20 19 16
22 22 21 19 17 14 11 10 9 9 8 7 7 7 2 7 9 7 16 17 13 8 5 2 3 3 3 7 6 8 7 11 11 13 13 12 11 10 6 10 18 20 18 16 14
24 23 22 20 18 15 12 11 9 9 7 6 4 5 5 5 4 9 16 12 10 10 2 2 4 4 5 6 3 7 10 14 12 13 12 13 13 5 9 17 20 18 16 14 14
25 24 23 21 19 16 15 11 9 7 6 3 2 2 6 7 3 12 14 9 6 7 1 3 5 5 3 9 5 7 15 12 11 11 9 13 8 13 15 19 19 17 14 13 13
26 26 25 22 19 18 15 9 6 4 3 3 2 3 3 4 4 11 11 8 8 6 5 5 3 3 2 5 7 5 8 8 9 10 9 9 12 14 17 19 18 16 13 12 11
27 27 27 22 21 18 9 3 5 5 3 2 2 6 7 1 5 9 10 2 7 6 4 6 6 3 4 6 6 4 7 7 8 10 8 8 10 15 16 16 16 14 13 12 12
28 27 27 23 22 14 2 5 5 4 2 1 4 5 5 4 5 8 9 5 2 4 5 5 7 7 8 5 2 6 5 5 6 9 7 7 11 15 15 15 16 15 14 13 12
30 28 27 23 20 7 3 2 5 5 8 3 8 2 9 7 5 7 8 10 5 6 8 5 7 8 4 3 3 1 1 1 4 7 9 8 11 14 16 14 15 15 14 14 13
30 29 27 22 15 5 1 3 5 5 6 6 5 4 4 2 7 10 9 10 8 7 5 8 10 4 2 3 8 9 7 5 5 9 10 10 9 13 16 14 14 15 15 15 15
30 31 26 20 8 3 2 3 2 4 5 10 6 8 5 10 10 14 14 10 10 7 9 12 8 4 4 7 9 10 9 4 1 10 4 8 10 12 14 14 12 12 14 15 15
32 32 26 15 1 2 2 1 10 4 4 11 10 8 8 7 8 8 14 8 6 10 4 7 1 5 8 6 9 7 1 6 8 12 5 10 4 12 14 14 14 12 12 13 14
36 30 24 7 5 4 2 8 2 4 5 5 9 3 5 14 11 10 8 8 12 10 8 7 7 7 11 3 3 6 2 4 6 8 4 9 8 9 8 12 15 14 9 11 12
37 27 13 1 4 3 3 3 4 6 6 6 6 10 13 14 7 8 12 8 2 7 8 2 2 4 1 3 3 11 9 6 4 7 9 7 7 11 7 5 3 8 16 14 13
33 12 3 5 2 2 4 5 6 8 3 5 5 9 18 13 13 10 15 16 12 12 12 8 7 2 6 7 7 9 11 8 9 9 10 6 6 11 7 3 4 7 11 16 13
22 7 5 1 3 3 6 7 8 3 3 2 2 6 16 13 15 11 11 15 10 10 10 13 10 10 3 7 8 13 12 11 11 10 8 5 6 7 5 3 3 8 14 15 15
8 2 1 4 3 3 7 10 3 3 1 2 5 8 13 10 7 13 15 15 16 14 10 11 9 7 4 4 2 7 9 6 12 6 11 11 7 5 5 6 4 5 12 12 14
3 2 4 4 1 7 8 12 2 2 2 4 7 3 11 15 13 13 14 13 8 9 10 7 9 6 6 5 5 6 7 7 8 14 13 8 5 2 7 5 9 10 10 9 11
3 3 2 4 2 5 9 8 4 5 3 4 3 5 4 7 12 14 12 5 9 10 10 8 12 11 7 9 8 6 8 5 6 4 10 9 3 5 5 5 10 9 10 11 15
4 2 2 3 4 2 6 1 2 6 5 5 4 7 7 4 10 12 12 7 6 8 11 11 9 10 11 6 2 4 5 8 8 11 8 9 2 6 8 11 11 10 11 13 13
3 2 1 4 2 4 4 5 5 9 11 10 10 6 4 5 6 10 12 6 7 10 7 9 8 7 7 8 5 8 4 6 6 7 9 9 4 8 9 13 12 12 11 11 11
4 3 3 1 1 4 2 2 5 4 10 12 12 11 15 13 8 4 9 5 7 4 3 3 4 9 5 2 7 8 8 5 10 9 10 10 11 12 13 15 14 13 13 12 12
3 3 3 2 4 2 3 3 7 7 8 9 10 17 14 14 11 11 9 7 7 7 4 5 4 2 5 6 4 3 5 5 10 11 10 6 5 14 14 15 14 14 12 11 9
4 3 2 1 1 4 5 1 8 7 8 10 11 14 14 16 12 3 11 9 8 7 7 4 4 8 7 4 5 4 3 3 4 5 6 7 4 15 14 14 13 12 10 9 9
4 2 4 3 3 5 3 5 7 9 6 10 11 9 12 14 10 8 7 5 4 8 6 3 8 6 5 1 3 7 4 6 4 5 7 8 8 16 15 15 13 10 7 7 7

GFSSW_925_spd_294.txt.gz
Wind_Speed
19 19 18 17 16 14 13 13 12 11 11 11 13 12 11 10 9 6 7 1 5 7 5 7 9 9 9 11 11 23 4 2 17 16 12 12 20 20 18 18 15 12 25 25 28
20 20 19 18 17 16 14 13 12 11 11 10 12 12 12 11 9 15 9 8 7 10 6 9 7 5 9 8 2 3 5 6 16 14 15 14 15 16 16 15 18 24 24 28 27
22 21 21 20 18 17 15 14 13 12 11 10 12 12 10 9 8 7 12 10 12 12 12 9 9 9 4 11 6 8 9 15 15 14 13 18 17 17 15 19 23 22 23 22 24
23 22 23 22 19 18 16 14 13 12 11 10 11 11 10 3 2 8 11 12 12 12 15 12 12 14 19 7 7 8 14 14 13 14 15 16 14 15 18 17 23 22 22 21 18
24 24 24 24 20 19 17 15 14 13 11 10 10 11 5 8 5 14 14 15 12 13 19 17 10 10 6 6 3 3 7 14 14 16 13 14 12 12 18 21 21 21 20 19 21
25 26 25 25 22 19 19 17 14 12 10 9 9 9 6 11 13 19 17 15 13 17 22 3 9 17 9 9 6 14 16 13 16 14 12 14 11 9 16 19 21 20 17 15 15
26 27 25 26 23 20 20 16 11 10 8 8 7 5 10 4 14 17 17 15 13 14 9 2 11 14 6 7 11 3 16 12 12 10 14 15 11 14 18 18 19 17 16 14 12
28 28 26 26 23 21 18 12 8 6 6 6 5 4 6 6 14 18 18 17 11 10 14 7 5 11 10 7 12 10 9 3 12 12 8 4 13 17 18 18 18 17 14 12 11
28 28 26 25 22 20 15 6 4 2 3 5 5 8 8 9 16 20 18 16 13 13 11 7 6 7 10 1 1 10 4 8 6 16 16 4 15 17 18 17 17 15 13 14 13
29 29 27 24 21 18 10 6 6 5 4 6 14 8 11 13 18 19 18 16 13 13 11 7 6 10 17 13 2 6 7 12 14 19 20 15 14 17 18 17 16 16 14 14 17
30 29 27 22 19 15 9 6 4 5 13 12 13 19 10 13 13 17 18 12 13 10 13 17 11 13 13 10 12 10 22 16 20 8 17 20 18 19 18 19 17 15 15 14 17
31 30 26 21 17 12 8 6 8 8 7 19 17 17 2 10 9 14 17 14 14 14 15 12 12 8 11 18 8 13 12 9 15 14 18 7 13 9 15 17 17 18 15 17 18
33 31 26 19 14 9 11 11 6 8 6 14 17 12 10 6 13 16 18 17 16 15 17 14 7 4 6 12 15 12 11 8 14 15 18 12 7 19 13 14 14 18 19 17 21
34 31 23 15 5 9 13 2 8 7 6 13 16 13 15 14 15 17 22 15 17 20 14 12 15 4 11 12 11 15 8 7 13 12 6 2 4 11 10 7 16 12 15 18 19
34 31 15 8 12 9 5 5 8 9 5 12 16 5 11 13 5 17 14 14 20 16 11 18 14 10 11 14 9 16 5 10 13 13 23 19 4 10 10 9 16 18 17 16 21
33 25 10 4 6 12 8 8 9 6 4 8 8 9 14 16 15 6 12 9 15 16 18 17 11 5 10 15 5 14 7 11 13 14 12 15 13 12 13 13 12 14 18 18 18
30 16 8 8 4 4 8 8 6 8 8 6 10 13 15 17 15 11 10 13 13 12 16 18 18 10 11 16 10 11 12 8 7 10 10 14 13 11 20 23 18 25 21 16 16
27 10 7 9 9 7 8 7 9 9 16 5 3 9 13 15 16 18 11 13 17 19 16 14 15 21 13 15 15 12 15 13 13 11 5 15 7 13 18 23 24 6 21 18 16
22 8 8 4 6 6 7 9 9 14 10 3 6 9 12 12 16 17 17 14 14 17 17 16 18 15 22 14 17 18 13 17 22 20 14 10 10 10 12 10 8 8 19 19 21
16 14 9 2 5 9 7 14 15 10 5 8 9 13 12 14 15 18 14 16 15 17 16 16 15 14 10 4 12 17 16 9 10 17 14 9 13 7 16 11 19 20 19 20 19
5 6 8 6 7 6 8 12 11 5 1 6 13 15 17 12 17 14 16 13 14 13 18 12 15 18 11 8 13 10 11 17 15 12 10 12 4 15 18 15 18 17 16 17 15
9 4 9 7 6 8 10 14 4 5 7 5 9 11 13 15 15 15 16 13 11 13 11 10 13 13 16 17 17 17 17 15 12 17 14 13 4 12 18 16 18 15 13 14 16
6 7 6 8 6 8 9 3 9 8 10 10 7 9 11 14 14 14 16 16 10 10 9 4 10 13 16 7 6 11 16 14 14 10 13 10 7 17 19 14 13 15 13 12 13
5 4 5 6 10 12 9 3 9 9 6 10 12 13 13 13 13 12 16 17 5 2 6 1 11 14 13 6 10 7 17 18 15 11 13 12 18 15 15 17 14 12 12 12 13
5 4 8 4 1 5 6 10 7 8 5 4 7 11 12 14 14 16 15 20 7 6 4 7 13 18 16 4 6 5 8 17 9 12 10 4 12 21 18 13 14 13 13 13 13
6 7 11 11 7 7 5 9 6 8 7 10 12 12 14 14 14 16 17 17 16 6 11 13 12 16 11 4 8 7 8 5 8 8 8 12 15 17 20 18 17 15 14 13 11
14 15 7 10 7 8 5 5 4 9 8 9 9 13 14 9 15 13 17 7 15 2 13 17 13 11 8 2 11 9 7 4 11 1 5 3 15 15 16 19 17 17 16 15 14

GFSSW_925_spd_297.txt.gz
Wind_Speed
21 20 20 19 17 15 14 13 12 12 12 14 15 16 16 15 13 8 6 6 12 7 6 6 10 7 20 6 5 3 1 1 8 9 18 18 19 16 18 25 18 9 18 24 33
21 21 22 21 19 17 16 14 11 11 12 13 14 15 14 15 12 12 12 8 6 6 8 9 10 10 6 4 4 2 2 7 10 10 18 20 17 16 13 18 23 22 22 28 34
21 22 22 22 20 18 16 14 12 11 12 13 13 13 12 12 4 7 14 14 10 7 12 13 16 14 8 5 9 4 5 6 11 11 16 17 16 16 20 20 22 27 23 20 29
23 24 23 23 21 18 17 15 13 11 12 13 12 12 11 3 3 3 12 11 11 9 10 11 12 10 4 2 3 3 9 12 11 16 15 12 13 14 19 21 22 21 20 20 12
24 25 24 23 22 19 17 16 14 12 11 11 10 10 4 4 8 10 13 12 10 7 21 21 17 7 4 6 6 3 8 12 15 13 9 11 7 18 23 23 21 19 19 18 15
25 26 25 23 22 20 18 17 14 10 9 9 8 7 1 5 8 18 16 15 9 10 21 8 11 14 3 7 7 17 9 15 11 7 14 12 11 16 20 21 20 18 16 16 13
26 27 26 24 22 20 19 15 11 9 8 7 5 3 5 11 12 18 17 15 12 15 11 25 20 5 4 7 15 12 6 12 11 8 11 9 13 13 16 18 17 14 11 18 12
27 27 25 25 22 20 18 13 7 6 5 5 3 1 7 9 18 17 16 12 12 11 10 1 20 11 6 2 10 9 4 3 9 13 3 8 11 16 15 14 13 13 11 15 19
28 27 26 25 22 21 17 8 4 3 3 3 2 4 7 15 15 20 21 21 19 14 14 11 7 7 4 15 9 6 4 4 8 13 10 6 13 17 14 13 11 10 8 15 9
29 28 27 25 22 21 15 8 6 4 4 4 9 4 7 10 15 24 22 24 15 10 10 8 3 6 5 7 6 13 7 4 5 3 12 9 13 15 14 15 13 10 9 12 15
30 30 27 24 20 19 16 4 1 1 7 9 7 4 4 25 19 17 20 16 11 7 8 8 7 10 17 22 20 18 11 7 2 6 6 10 9 13 14 12 14 13 9 14 12
31 31 27 22 18 15 9 4 9 8 7 17 18 19 28 11 8 11 21 9 6 8 9 4 11 12 23 23 19 19 10 4 12 7 6 12 3 10 10 16 16 15 12 15 13
32 32 29 19 15 11 10 12 9 14 3 9 14 9 8 7 9 10 9 10 11 10 14 8 9 25 21 22 22 19 23 12 14 16 5 11 3 10 5 2 13 16 15 17 16
33 32 26 17 6 8 9 10 9 14 2 7 9 11 7 7 9 13 19 11 7 14 15 9 9 0 6 5 14 9 26 19 23 12 7 4 4 5 8 6 7 17 16 16 16
33 30 21 14 13 6 16 11 10 8 3 8 9 7 7 9 4 9 18 10 11 12 8 10 11 9 8 8 5 6 9 22 26 12 8 4 5 7 6 10 7 13 18 21 22
33 28 18 4 10 10 12 15 14 2 5 7 8 8 7 9 8 8 7 4 5 10 13 11 12 3 3 9 7 10 4 9 8 6 3 13 6 5 7 13 8 3 7 17 21
32 24 13 8 4 13 10 7 1 3 2 6 8 8 9 8 9 9 8 3 2 4 6 9 13 13 4 2 8 9 4 4 4 2 8 14 3 7 17 11 15 7 3 5 11
31 17 8 13 6 6 14 2 3 9 8 4 4 9 8 10 10 10 6 7 8 6 6 5 8 14 11 9 8 7 6 5 4 3 7 19 8 5 16 11 7 5 7 4 14
27 10 4 5 5 6 1 3 5 5 7 7 6 3 6 6 9 9 10 9 9 11 9 5 11 15 14 7 10 7 6 10 6 5 3 3 6 8 5 11 9 7 4 2 7
21 6 14 11 8 7 1 5 6 13 7 10 6 7 8 9 7 7 7 9 9 9 7 8 6 10 10 7 6 8 6 4 4 3 4 4 6 9 14 11 11 10 10 11 11
6 3 10 8 9 0 3 6 9 6 8 6 6 8 10 9 12 9 5 8 10 6 9 7 5 12 5 4 6 3 4 4 1 3 1 2 3 14 19 20 20 15 12 11 14
7 3 12 12 2 4 5 6 6 5 7 2 2 7 7 9 9 9 10 7 13 7 7 9 6 3 5 8 5 8 7 4 5 9 4 5 2 16 17 15 18 15 14 12 12
5 3 12 9 3 4 7 17 1 8 6 5 4 2 6 7 7 7 12 14 12 6 4 1 1 3 10 10 6 5 9 8 3 1 5 3 5 13 18 8 11 15 10 9 9
4 4 1 2 5 8 9 6 5 5 3 3 6 7 8 8 9 7 10 10 15 3 7 7 1 6 6 4 5 4 5 6 2 1 3 2 9 13 18 16 14 13 11 9 7
3 3 6 4 6 6 8 9 9 7 4 5 4 6 7 5 6 8 9 11 15 6 2 3 1 4 7 9 8 7 7 5 9 6 4 10 9 13 14 16 14 13 12 10 8
4 4 5 9 10 6 5 6 10 4 8 8 6 9 8 6 7 7 8 7 3 9 2 4 5 3 9 10 10 11 24 6 6 6 14 21 15 20 16 17 14 13 14 14 12
11 12 4 8 7 7 6 3 6 7 5 10 11 7 9 11 9 8 8 6 4 4 6 7 3 1 3 3 7 9 12 14 6 13 12 8 10 16 14 15 14 13 12 12 12

GFSSW_925_spd_300.txt.gz
Wind_Speed
19 20 20 20 19 17 16 15 13 11 12 12 13 14 14 14 8 4 5 6 7 8 7 6 10 12 9 2 6 2 1 1 5 10 11 14 22 13 9 20 8 1 17 20 28
20 21 21 20 19 17 16 15 13 12 12 12 12 13 13 14 7 8 6 7 7 10 4 15 10 22 5 7 2 2 2 5 6 13 16 17 21 16 11 14 15 18 17 28 29
21 22 22 20 20 18 16 14 13 12 12 11 11 11 11 10 2 5 14 12 7 8 16 22 10 10 3 7 3 3 3 8 18 18 17 17 19 13 19 14 23 25 21 22 24
22 23 23 21 21 18 16 14 13 12 12 9 9 9 10 3 1 3 9 14 12 12 17 14 6 6 4 2 4 5 5 9 18 15 15 15 18 17 17 11 17 20 23 21 18
23 24 23 22 21 19 16 15 13 12 10 7 6 7 3 2 7 4 14 18 21 15 21 8 9 4 5 5 5 4 9 12 14 10 8 12 16 12 16 19 17 19 23 18 18
23 25 23 22 22 19 17 15 12 9 8 5 4 4 2 2 4 13 19 22 21 21 11 20 6 3 3 7 6 7 12 13 14 15 20 25 19 12 16 20 19 18 16 17 18
25 26 24 23 22 20 17 15 11 7 5 2 2 1 1 9 4 19 20 19 20 16 8 3 13 4 4 3 6 11 7 13 9 7 16 21 13 14 19 19 19 17 14 12 14
26 27 25 25 22 20 17 14 7 4 2 0 2 3 6 3 10 18 17 14 17 14 12 20 19 6 2 2 3 6 4 2 1 12 8 10 11 16 18 17 17 16 14 13 13
27 27 27 25 22 20 16 10 3 3 2 2 2 2 7 8 15 21 19 11 17 19 17 23 13 3 1 6 6 4 2 2 3 3 8 6 8 15 16 14 12 13 13 18 10
28 28 28 25 22 19 15 7 2 0 1 1 2 2 4 6 9 17 20 14 5 4 3 8 4 4 5 4 6 6 3 1 4 8 11 8 6 14 14 14 14 8 14 14 13
29 30 29 25 21 17 13 1 4 2 3 7 6 4 2 5 13 14 19 12 10 4 6 6 4 6 12 9 4 9 5 8 11 6 7 13 15 17 15 13 12 8 16 16 18
29 30 30 23 18 14 8 2 6 1 6 10 10 8 17 8 5 10 20 6 7 10 4 2 8 12 16 8 2 11 7 3 7 3 3 7 7 3 4 13 15 14 14 16 14
30 30 29 21 14 6 6 11 14 18 1 8 6 6 7 10 11 10 13 7 7 5 4 6 12 13 15 10 7 5 12 10 9 6 4 1 7 6 7 8 17 15 16 17 19
32 31 27 20 2 8 7 17 18 2 5 6 4 7 4 5 3 11 17 9 5 12 7 8 7 9 13 11 10 5 15 15 22 13 4 9 4 8 7 7 10 18 16 18 17
33 29 23 15 10 3 11 22 23 5 4 3 4 4 6 9 2 2 8 3 10 10 3 11 3 9 13 9 19 11 21 23 17 7 6 8 1 7 9 8 10 15 18 20 18
33 26 19 6 7 6 18 16 7 6 4 2 7 5 6 1 5 4 7 4 5 5 1 9 2 4 4 3 24 1 18 13 6 4 1 16 8 5 7 16 11 5 16 20 19
31 23 13 7 4 10 15 5 5 3 6 3 5 6 8 7 6 5 2 4 5 3 6 7 8 6 5 4 5 5 6 2 3 1 6 12 4 14 8 8 8 8 15 17 19
27 14 6 10 5 7 8 5 2 4 5 4 5 3 7 7 7 6 5 5 5 5 4 4 9 2 1 5 9 6 9 6 6 5 2 4 6 7 9 9 8 8 10 9 3
26 6 6 1 5 3 5 4 6 4 3 7 6 5 3 5 1 2 9 9 10 9 9 6 6 6 4 6 10 7 3 8 4 1 4 5 4 4 3 9 12 14 15 12 13
15 8 5 7 6 4 5 4 4 3 4 2 4 3 6 6 6 7 3 3 7 11 8 9 3 7 9 4 4 9 5 1 3 1 3 5 3 4 3 7 12 13 17 15 15
5 4 3 10 12 5 3 6 5 7 2 4 2 4 2 3 2 5 4 5 6 8 7 4 5 9 2 2 3 4 2 3 5 5 5 3 3 6 13 14 16 14 13 13 14
7 2 7 15 3 1 1 4 4 4 6 3 2 2 2 3 3 3 2 5 8 2 5 4 6 5 9 4 6 7 7 5 5 5 3 5 2 5 16 17 19 16 13 14 14
2 3 4 6 1 2 6 7 7 5 2 2 3 3 2 3 4 2 5 8 7 8 5 3 3 3 8 7 8 4 5 4 4 4 4 6 4 5 10 17 15 16 13 1 8
2 4 4 4 1 4 5 5 7 8 2 2 1 3 5 6 1 4 4 4 8 6 8 3 4 5 6 6 3 6 9 3 5 3 4 4 10 12 11 16 12 12 12 10 6
2 2 1 3 5 7 3 3 5 6 5 8 6 5 2 3 5 6 5 7 7 10 7 4 2 3 1 2 10 10 11 11 8 1 4 12 14 17 11 14 13 14 13 12 11
3 3 5 4 5 7 7 7 3 5 3 3 4 4 5 1 2 5 5 4 3 4 5 7 2 4 5 8 18 15 20 15 9 7 13 15 8 7 8 8 10 13 13 12 11
8 6 3 5 7 5 5 10 4 3 3 2 3 2 4 6 5 5 6 4 3 4 2 4 3 4 4 6 2 10 10 12 9 9 6 6 7 12 10 11 12 12 10 11 9

GFSSW_925_spd_303.txt.gz
Wind_Speed
20 21 21 19 19 17 15 13 13 11 9 8 7 9 10 8 5 2 4 4 8 16 14 14 5 3 1 5 1 1 1 3 6 7 6 14 9 7 6 11 2 2 7 17 24
20 22 22 19 19 18 16 14 13 11 8 7 6 8 9 10 1 7 4 9 15 19 21 16 6 8 1 3 3 2 2 3 5 6 13 11 16 8 7 7 9 17 17 25 24
21 22 22 20 19 19 16 14 13 11 8 6 6 6 9 7 1 3 14 14 21 17 16 24 20 6 2 1 4 1 3 6 6 15 19 16 12 5 16 7 17 21 20 22 23
22 23 23 20 19 19 16 14 14 12 8 5 4 5 6 1 4 4 16 19 19 18 16 15 5 2 2 2 6 4 6 5 8 13 14 17 12 9 3 7 14 16 22 23 17
23 24 23 21 20 18 16 14 13 10 6 3 3 4 0 1 4 8 25 19 19 25 17 11 8 1 0 5 7 2 8 13 11 12 14 15 9 11 5 15 16 18 18 16 17
23 24 24 22 20 18 16 14 12 8 4 1 1 2 1 1 5 21 25 24 18 14 11 17 10 7 2 1 2 5 8 7 5 14 16 14 9 5 11 17 18 18 17 15 17
23 24 24 23 21 17 15 14 9 5 2 1 1 2 2 5 4 23 26 25 18 10 6 3 16 4 5 1 3 3 16 12 5 5 8 16 3 6 16 17 18 17 16 14 17
24 26 26 23 20 17 13 11 4 3 0 2 2 2 3 2 12 24 20 19 16 4 9 12 9 4 2 3 4 6 6 3 2 7 8 4 4 8 13 17 17 16 14 14 14
25 27 27 24 20 15 12 6 2 3 3 3 2 1 4 14 14 23 20 11 16 6 0 9 4 4 5 3 4 7 4 4 6 7 3 3 4 12 14 14 14 14 14 14 13
26 27 27 25 18 14 10 1 3 3 3 2 1 2 1 4 7 18 19 9 5 6 5 1 4 4 3 2 6 4 5 2 3 6 8 3 3 15 15 14 15 14 14 14 14
28 28 27 24 19 13 4 5 3 3 2 7 4 2 2 4 12 10 16 7 1 3 5 6 3 6 11 7 1 12 12 10 5 5 1 6 2 17 16 12 12 12 12 14 13
32 30 26 22 16 10 3 2 2 2 6 7 4 5 6 1 2 6 18 6 5 6 1 1 8 14 10 7 5 6 8 1 3 2 3 2 10 14 15 18 15 10 10 13 14
32 30 25 21 10 2 3 3 11 7 3 6 5 5 5 10 7 7 16 6 5 6 8 7 11 5 10 6 6 4 7 9 4 5 2 0 6 6 7 8 11 10 14 12 16
32 29 22 18 2 6 5 13 15 4 4 5 4 6 4 6 3 7 20 6 4 9 7 5 9 10 9 4 6 6 12 12 11 8 4 5 4 7 12 8 9 15 14 15 14
34 25 20 12 6 2 7 15 6 4 3 1 4 1 3 7 3 4 6 4 7 6 5 8 5 5 4 6 13 10 9 5 7 4 3 2 1 6 7 16 19 15 16 18 17
30 24 18 3 4 3 12 9 3 6 0 1 4 5 5 0 2 3 3 3 2 3 2 7 4 3 7 4 19 8 11 9 4 3 3 8 6 6 6 26 21 12 18 19 19
27 19 10 5 2 6 7 4 5 3 3 2 5 2 3 5 2 6 5 3 6 2 6 5 4 4 4 2 6 9 8 3 2 1 6 2 7 12 5 6 24 18 14 17 17
29 7 3 7 3 4 3 5 2 3 6 4 1 3 4 1 2 1 5 5 4 2 3 4 9 6 5 6 8 13 9 6 7 5 3 5 6 5 10 4 7 7 4 11 15
18 5 3 3 5 3 6 3 6 5 3 5 2 5 3 4 0 2 3 3 5 8 9 6 7 3 4 4 8 4 6 6 7 2 3 4 5 3 13 13 14 13 14 11 9
10 6 3 5 8 5 5 4 4 6 3 1 3 3 3 3 3 3 1 4 3 4 8 3 4 5 3 2 1 7 5 2 3 4 4 5 4 4 3 8 11 12 12 11 12
5 4 9 8 3 5 3 6 6 7 4 3 3 3 3 3 3 1 1 3 5 7 4 4 7 10 3 4 7 0 2 5 5 4 6 3 5 4 7 10 11 10 11 12 12
4 3 6 2 4 1 2 5 5 6 4 3 4 3 4 2 2 1 1 3 6 2 2 2 4 7 14 4 5 2 2 6 5 4 1 3 4 6 8 12 13 11 12 11 12
2 2 7 1 2 3 6 5 4 3 3 2 2 1 0 2 2 2 0 4 3 4 3 4 0 2 7 6 5 5 3 4 4 3 6 6 4 7 9 11 10 15 12 11 14
2 4 4 4 0 2 5 5 7 5 4 4 3 5 4 4 4 2 3 4 7 3 3 7 3 5 6 4 2 3 6 3 4 4 5 5 8 12 13 10 7 7 8 8 5
4 1 1 3 4 5 2 5 5 5 4 8 5 4 2 4 4 4 1 5 5 5 2 4 3 3 4 9 8 6 6 7 3 1 4 6 7 14 14 13 10 8 9 9 8
3 3 4 2 4 5 6 5 3 3 2 2 2 1 4 4 5 4 4 4 6 3 2 2 3 4 6 5 12 7 11 6 4 5 5 7 4 8 5 7 8 9 8 8 10
6 3 3 4 5 3 3 5 7 9 3 2 2 1 3 3 7 6 6 3 3 3 0 3 4 3 5 2 3 7 8 8 2 4 5 4 5 7 7 9 10 9 9 7 6

GFSSW_925_spd_306.txt.gz
Wind_Speed
20 21 21 19 17 16 14 13 10 9 7 5 4 5 6 5 3 4 4 4 8 20 22 18 8 8 5 2 2 2 3 2 4 9 6 11 6 3 5 7 1 3 10 13 21
20 21 21 19 17 16 15 13 11 8 7 5 3 5 6 6 3 6 5 13 18 20 20 15 9 8 3 2 0 2 2 6 6 7 11 9 10 7 5 3 8 12 18 22 21
20 21 21 19 18 16 15 13 11 9 7 5 3 5 6 4 2 3 16 19 20 19 17 9 16 4 3 1 3 3 3 3 4 7 14 11 6 4 12 3 6 21 18 18 18
20 21 20 19 18 16 15 13 12 9 5 5 3 4 5 1 3 6 19 23 22 19 19 12 4 4 1 0 3 2 5 4 8 11 8 10 7 8 2 3 13 14 20 19 15
21 21 20 19 18 16 14 13 11 9 3 3 3 3 1 1 4 14 22 25 20 19 5 2 5 3 2 2 2 1 5 5 8 10 11 10 7 5 3 13 14 16 17 15 15
21 21 21 20 18 16 13 12 10 6 2 2 2 2 1 1 1 18 28 24 17 14 4 4 1 4 2 2 1 2 1 6 7 10 7 8 5 5 5 13 16 16 15 13 15
22 23 22 21 19 15 12 10 7 3 1 2 2 0 1 0 1 25 25 20 16 13 3 11 4 3 2 3 6 5 11 10 7 4 5 12 2 3 13 14 16 14 12 13 15
23 23 22 22 18 14 10 8 3 1 2 3 2 1 2 5 8 21 20 12 13 4 4 4 3 5 4 3 6 6 6 3 0 5 3 2 3 3 13 15 14 13 12 12 12
25 25 23 21 18 13 9 3 3 3 4 4 2 1 1 8 11 19 14 5 10 4 4 5 2 2 2 3 4 7 3 3 3 2 7 3 3 8 11 12 12 13 13 13 10
28 27 23 21 17 12 6 4 4 3 3 2 1 2 1 4 8 15 12 6 5 2 3 3 4 3 3 4 1 3 5 3 7 5 5 5 3 8 11 11 12 11 12 12 13
31 27 23 20 17 9 3 4 4 3 1 4 2 1 1 1 11 10 12 5 3 3 2 4 4 3 5 4 2 5 5 4 2 3 3 3 5 11 11 8 8 9 9 10 12
34 27 21 18 15 3 5 3 4 2 5 3 3 4 5 1 4 4 15 5 4 5 5 4 5 11 8 7 3 5 2 4 2 3 4 3 4 7 12 16 16 14 14 13 11
35 26 19 16 6 3 1 2 3 4 3 5 4 4 5 8 6 8 14 7 5 4 6 6 8 3 6 8 7 5 8 6 1 3 3 5 6 5 11 13 14 13 12 13 15
35 22 17 11 3 3 1 5 11 10 5 5 3 5 4 5 2 6 18 5 1 7 6 5 6 6 7 5 7 6 5 5 6 4 0 4 4 5 7 16 14 16 11 14 13
31 23 16 6 2 2 3 12 5 3 3 2 3 1 1 7 4 2 6 4 6 5 6 6 2 1 4 6 10 4 11 7 8 5 2 1 2 7 3 13 19 18 16 15 14
28 22 11 1 4 1 8 3 3 6 1 2 4 4 5 0 1 3 5 3 1 3 1 6 4 3 4 3 12 11 12 9 5 3 3 6 7 6 5 8 7 15 19 16 15
28 14 3 6 3 3 4 3 5 4 4 1 3 3 2 3 2 3 6 4 6 3 3 3 5 4 4 7 4 5 5 3 3 1 6 2 3 9 6 10 9 11 17 18 17
19 6 1 3 4 5 3 5 2 2 5 3 3 3 5 2 1 2 3 4 2 4 3 3 7 5 5 9 10 8 7 5 7 5 4 4 6 6 1 7 7 5 9 9 12
7 4 4 4 6 1 6 4 6 6 3 4 3 4 1 1 3 2 4 3 4 7 8 3 6 5 5 3 10 6 4 3 6 3 2 4 7 3 2 8 10 12 13 11 13
4 3 8 6 7 4 5 4 4 4 4 1 2 1 3 1 2 3 3 2 2 4 2 7 5 4 5 3 1 7 6 2 2 5 5 5 4 5 2 2 4 7 9 9 11
3 4 12 1 5 5 4 6 5 7 4 1 2 3 2 1 2 1 1 1 1 1 5 5 3 8 2 5 8 2 2 2 5 4 5 3 6 2 3 4 5 5 6 7 9
3 3 9 5 4 1 1 3 4 4 3 1 3 3 3 2 1 1 2 3 2 1 1 2 5 5 11 0 1 4 3 4 5 4 1 3 6 2 6 7 6 4 6 5 7
3 1 6 1 3 4 6 4 3 4 4 3 3 3 1 3 1 1 2 3 4 1 1 4 1 3 10 6 1 4 2 3 4 3 6 5 6 4 6 8 6 7 3 4 6
3 3 4 4 1 2 4 5 6 3 2 5 3 5 3 3 4 2 2 3 6 1 5 6 4 6 7 6 2 2 4 2 3 4 4 6 4 9 10 9 6 5 6 7 5
4 1 2 2 3 3 1 4 5 5 3 5 4 3 3 2 0 1 3 4 4 2 3 5 4 3 2 2 3 2 3 3 2 2 4 3 7 8 10 9 6 6 6 6 5
3 3 4 0 2 3 3 4 4 7 3 2 4 3 1 5 6 4 4 3 5 5 2 3 1 2 3 4 6 4 6 2 3 2 2 3 2 3 7 9 6 5 8 7 6
5 2 3 3 3 2 2 4 4 4 2 3 2 3 3 2 4 4 3 2 2 2 2 3 5 3 4 4 4 3 3 1 2 2 5 4 5 7 7 9 8 9 9 7 6

GFSSW_925_spd_312.txt.gz
Wind_Speed
15 15 15 14 13 12 12 9 7 5 2 2 3 3 3 3 3 3 8 1 7 18 15 9 5 5 3 1 1 2 3 6 7 4 9 10 9 4 4 12 8 6 8 21 21
15 14 14 15 13 12 11 9 7 5 3 3 3 3 2 3 4 9 5 6 10 18 13 8 6 5 2 1 2 3 5 7 6 5 10 11 5 10 9 11 10 9 16 22 21
14 14 15 15 14 12 11 8 7 5 4 3 3 2 2 1 7 4 9 11 16 16 9 4 4 4 2 3 2 2 8 5 4 6 10 10 7 5 12 9 11 15 20 21 20
15 16 16 15 14 12 10 8 7 5 3 4 3 2 1 3 1 4 11 13 18 12 7 2 1 4 1 2 3 4 5 3 5 8 10 8 9 9 1 5 8 17 21 21 17
15 16 16 16 15 12 9 7 7 5 2 4 4 3 2 6 4 4 13 18 14 8 5 3 3 6 5 2 1 1 7 10 10 7 9 8 8 6 5 8 15 20 19 18 16
16 18 17 16 14 12 8 7 5 3 3 4 4 4 4 5 2 13 16 16 10 7 2 2 5 7 5 3 4 3 12 13 10 10 8 9 9 2 6 11 15 17 16 15 15
18 20 17 16 14 10 7 5 2 2 4 5 4 3 6 6 3 15 17 12 7 8 3 6 6 7 3 5 2 11 14 13 9 8 4 7 8 3 13 14 15 15 14 13 14
20 21 18 16 13 9 5 2 2 4 6 6 4 3 3 2 9 16 13 9 5 5 6 2 4 3 3 4 7 9 10 9 8 9 6 7 9 9 14 15 15 15 14 13 14
22 21 18 15 10 7 2 4 6 6 6 6 2 6 7 9 13 16 12 9 7 2 3 1 4 2 5 8 8 7 5 2 7 8 5 10 3 9 14 14 14 15 14 14 14
23 21 17 13 8 3 5 6 7 7 5 2 4 5 7 8 15 14 12 13 3 4 5 4 1 1 3 8 6 5 5 3 3 7 7 8 10 8 12 14 14 14 15 15 15
23 21 15 11 7 2 9 3 5 5 7 5 7 5 12 15 16 13 13 12 4 5 5 2 7 4 4 8 3 7 4 5 2 2 7 8 8 6 12 15 14 14 16 16 16
22 19 14 9 4 5 6 4 6 5 4 2 1 4 12 20 10 13 14 11 9 8 6 4 5 3 3 3 6 3 6 4 3 3 8 6 10 8 11 16 16 16 16 18 18
22 17 10 6 5 5 3 2 0 4 4 6 3 8 12 11 12 17 15 7 9 8 9 3 3 0 4 5 7 8 6 5 10 4 5 7 14 6 12 15 15 15 15 18 19
21 13 6 1 4 5 3 1 6 4 6 10 10 8 8 7 7 19 19 8 6 8 5 5 3 5 2 3 5 2 4 4 6 6 3 2 2 8 8 14 17 18 17 17 18
17 10 3 11 1 4 3 4 3 4 5 9 9 5 10 13 12 14 20 14 12 6 6 6 7 5 7 6 4 7 3 1 2 4 6 10 6 7 7 7 13 17 19 18 18
14 5 6 5 2 1 4 2 4 6 2 8 8 12 14 13 7 10 13 13 8 11 10 9 1 5 5 4 1 3 4 4 3 5 9 6 5 5 4 4 3 7 13 17 17
6 5 10 9 4 2 2 5 5 5 3 7 12 12 17 11 8 11 16 18 12 10 13 14 13 11 9 5 5 9 10 8 6 8 5 5 5 7 6 2 1 4 7 11 18
10 12 9 3 1 2 6 5 5 3 2 3 5 11 13 10 14 9 12 15 19 12 10 6 11 16 14 16 10 11 13 6 10 12 6 7 4 1 3 3 3 1 4 7 12
8 6 4 3 2 1 6 6 2 1 1 2 8 12 11 7 6 12 12 12 12 14 15 8 11 6 6 3 7 8 9 15 14 18 11 13 9 10 11 7 2 3 6 6 9
2 8 6 3 4 6 6 2 1 2 3 4 8 5 14 12 12 10 13 3 9 7 12 13 14 13 6 4 5 11 8 7 11 15 19 11 11 9 7 8 4 1 5 6 6
2 2 3 6 3 5 6 1 1 1 3 3 2 5 6 5 12 11 6 6 3 5 7 11 11 14 7 11 14 9 12 12 10 10 11 13 8 9 3 3 2 4 5 5 5
4 2 3 3 4 1 3 1 1 2 2 3 2 1 4 5 7 8 8 2 3 2 6 6 7 11 16 6 4 12 18 17 12 11 11 10 12 6 6 7 5 6 9 8 8
2 3 2 4 2 3 3 3 2 4 2 4 3 2 1 4 5 3 3 5 3 3 2 1 6 10 14 11 9 10 12 14 17 16 14 14 11 5 4 7 7 10 7 8 8
3 2 3 3 1 3 1 2 3 1 2 2 2 3 5 4 1 3 6 4 3 4 3 1 12 12 13 17 5 11 9 10 14 12 16 16 12 11 6 6 9 9 9 9 8
4 3 3 1 4 3 3 2 2 3 1 3 4 6 5 5 5 5 4 5 7 7 3 6 14 15 17 18 13 14 14 12 14 16 15 14 9 8 6 7 10 11 7 11 9
3 3 1 1 2 5 3 1 4 1 3 5 7 3 4 6 5 6 5 7 8 4 7 5 12 10 16 17 12 15 10 11 11 11 10 10 4 3 8 12 12 11 10 11 11
5 1 4 3 2 4 2 4 2 5 3 2 5 5 7 3 6 7 8 9 9 9 12 8 10 8 15 7 10 12 15 7 5 6 8 9 9 8 10 10 11 13 13 12 13